Tracking 33485 objects as of 15-Mar-2026
HD Live streaming from Space Station
objects crossing your sky now

STARLINK-35708

Track STARLINK-35708 now!
10-day predictions
STARLINK-35708 is classified as:


NORAD ID: 66277
Int'l Code: 2025-247N
Perigee: 481.7 km
Apogee: 483.0 km
Inclination: 53.2 °
Period: 94.1 minutes
Semi major axis: 6853 km
RCS: Unknown
Launch date: October 31, 2025
Source: United States (US)
Launch site: AIR FORCE WESTERN TEST RANGE (AFWTR)
Your satellite tracking list
Your tracking list is empty




NASA's NSSDC Master Catalog

Two Line Element Set (TLE):
1 66277U 25247N   26073.64391369  .00033504  00000-0  11381-2 0  9998
2 66277  53.1590 168.3311 0000916 100.1825 259.9279 15.30203301 21845
Source of the keplerian elements: AFSPC